This is the latest recevied weather packets stored in our database for station/object KC5TXI. If no packets are shown the sender has not sent any weather packets the latest 10 day(s).
| Time | Temp. | Humidity | Pressure | Rain* | Wind** | Luminosity | Snow |
|---|---|---|---|---|---|---|---|
| 1787420805 | 41.67° C | 35% | 1018.5 hPa | 0 mm | - | 583 W/m² | - |
| 1787420502 | 41.67° C | 34% | 1018.5 hPa | 0 mm | - | 570 W/m² | - |
| 1787420197 | 41.11° C | 34% | 1018.7 hPa | 0 mm | - | 596 W/m² | - |
| 1787419894 | 41.11° C | 32% | 1018.5 hPa | 0 mm | - | 623 W/m² | - |
| 1787419585 | 41.11° C | 33% | 1018.7 hPa | 0 mm | - | 630 W/m² | - |
| 1787419284 | 40.56° C | 36% | 1018.9 hPa | 0 mm | - | 599 W/m² | - |
| 1787418981 | 40.56° C | 36% | 1018.9 hPa | 0 mm | - | 571 W/m² | - |
| 1787418680 | 41.11° C | 37% | 1018.9 hPa | 0 mm | - | 606 W/m² | - |
| 1787418377 | 40.56° C | 36% | 1019 hPa | 0 mm | - | 633 W/m² | - |
| 1787416550 | 39.44° C | 39% | 1019.5 hPa | 0 mm | - | 677 W/m² | - |
| 1787416245 | 39.44° C | 39% | 1019.5 hPa | 0 mm | - | 677 W/m² | - |
| 1787415944 | 38.89° C | 39% | 1019.4 hPa | 0 mm | - | 704 W/m² | - |
| 1787415639 | 38.89° C | 42% | 1019.2 hPa | 0 mm | - | 667 W/m² | - |
| 1787415335 | 38.33° C | 42% | 1019.1 hPa | 0 mm | - | 576 W/m² | - |
| 1787415030 | 38.33° C | 41% | 1019.1 hPa | 0 mm | - | 610 W/m² | - |
| 1787414726 | 37.78° C | 42% | 1019.1 hPa | 0 mm | - | 611 W/m² | - |
| 1787414421 | 38.33° C | 43% | 1019 hPa | 0 mm | - | 439 W/m² | - |
| 1787414119 | 37.78° C | 43% | 1019.1 hPa | 0 mm | - | 541 W/m² | - |
| 1787413814 | 37.78° C | 44% | 1019 hPa | 0 mm | - | 468 W/m² | - |
| 1787413509 | 37.78° C | 46% | 1019 hPa | 0 mm | - | 496 W/m² | - |
| 1787413203 | 37.22° C | 47% | 1018.8 hPa | 0 mm | - | 532 W/m² | - |
| 1787412899 | 36.67° C | 46% | 1018.8 hPa | 0 mm | - | 476 W/m² | - |
| 1787412594 | 36.11° C | 50% | 1018.8 hPa | 0 mm | - | 411 W/m² | - |
| 1787412289 | 36.11° C | 49% | 1018.6 hPa | 0 mm | - | 379 W/m² | - |
| 1787411985 | 35.56° C | 50% | 1018.7 hPa | 0 mm | - | 334 W/m² | - |
* Rain latest hour (hover to see other rain measurements)
** Current wind speed in m/s (hover to see current wind gust speed)